[Date Prev][Date Next][Thread Prev][Thread Next] - [Date Index][Thread Index][Author Index]

2 Line ISS Keps 6-23



ISS
1 25544U 98067A   04175.33224600  .00013918  00000-0  12158-3 0   530
2 25544  51.6338 294.4072 0005315 273.1815 185.8104 15.69253190319288

----
Via the sarex mailing list at AMSAT.ORG courtesy of AMSAT-NA.
To unsubscribe, send "unsubscribe sarex" to Majordomo@amsat.org



AMSAT Top AMSAT Home